Regional Weather Roundup
Issued by NWS

Home | Current Version | Previous Version | Text Only | Print | Product List | Glossary On
Versions: 1 2 3 4 5 6 7 8 9 10 11 12 13 14 15 16 17 18 19 20 21 22 23 24 25 26 27 28 29 30 31 32 33 34 35 36 37 38 39 40 41 42 43 44 45 46 47 48 49 50
000
ASUS43 KMPX 260010
RWRMN
WEATHER ROUNDUP FOR MINNESOTA
NATIONAL WEATHER SERVICE TWIN CITIES/CHANHASSEN MN
600 PM CST SUN JAN 25 2015


NOTE: "FAIR" INDICATES FEW OR NO CLOUDS BELOW 12,000 FEET WITH NO
SIGNIFICANT WEATHER AND/OR OBSTRUCTIONS TO VISIBILITY. N/A MEANS
CURRENT SKY AND/OR WEATHER CONDITIONS ARE NOT AVAILABLE.

MNZ060>063-068>070-260100-
   Twin Cities Metro

CITY           SKY/WX    TMP DP  RH WIND       PRES   REMARKS
TWIN CITIES    PTCLDY    23  12  62 SE5       30.05S WCI  17
6HR MIN TEMP:  22; 6HR MAX TEMP:  27;

ST PAUL        CLEAR     21  12  68 S6        30.07S WCI  13
CRYSTAL        CLEAR     25  13  60 CALM      30.04R
BLAINE         CLEAR     25  14  63 CALM      30.04S
LAKEVILLE      CLEAR     19  16  86 CALM      30.05S
EDEN PRAIRIE   CLEAR     24  12  60 CALM      30.04S
6HR MIN TEMP:  23; 6HR MAX TEMP:  28;

SOUTH ST PAUL  CLEAR     23  14  67 SE3       30.06S
LAKE ELMO      FAIR      23  12  63 SE3       30.06R
$$
MNZ001>005-007-008-013>017-022>024-027-028-260100-
   Northwest Minnesota

CITY           SKY/WX    TMP DP  RH WIND       PRES   REMARKS
BEMIDJI        CLOUDY    25  18  74 S5        29.94F WCI  19
HALLOCK        CLOUDY    19  14  79 S16       29.91F WCI   5
ROSEAU         CLOUDY    19  12  73 S6        29.93F WCI  11
WARROAD        CLOUDY    19  12  73 S6        29.92F WCI  11
THIEF RVR FALL CLOUDY    19  16  86 S6        29.95F WCI  11
CROOKSTON      CLOUDY    25  18  74 S8        29.98F WCI  16
FOSSTON        CLOUDY    21  16  79 SW7       29.98R WCI  13
DETROIT LAKES  CLOUDY    27  21  80 SW6       30.00R WCI  20
MOORHEAD       CLOUDY    25  19  80 S5        30.00F WCI  19
PARK RAPIDS    CLOUDY    27  19  72 S6        29.97R WCI  20
MAHNOMEN       FAIR      24  18  76 SW9       29.97S WCI  14
$$
MNZ006-009>011-018-025>026-260100-
   North Central Minnesota

CITY           SKY/WX    TMP DP  RH WIND       PRES   REMARKS
BAUDETTE       CLOUDY    20  12  71 SW3       29.92F
FLAG ISLAND    CLOUDY    14   9  79 S8        29.91F WCI   3
INTL FALLS     CLOUDY    17  10  74 SE3       29.94F
6HR MIN TEMP:   8; 6HR MAX TEMP:  19;

WASKISH        CLOUDY    19  16  86 CALM      29.95F
BIG FORK       CLOUDY    23  14  68 S6        29.97S WCI  16
LONGVILLE      MOCLDY    23  14  68 SE5       29.98S WCI  17
GRAND RAPIDS   CLOUDY    21  12  68 SE9       29.97F WCI  11
CRANE LAKE     CLOUDY    19   9  63 CALM      29.99F
ORR            CLOUDY    21  10  63 S7        29.94F WCI  13
COOK           CLOUDY    19  12  73 S6        29.98S WCI  11
WALKER         CLOUDY    26  17  68 CALM      29.97R
$$
MNZ012-019>021-037-260100-
   Northeast Minnesota

CITY           SKY/WX    TMP DP  RH WIND       PRES   REMARKS
DULUTH         CLOUDY    20  14  77 CALM      30.01R
6HR MIN TEMP:  19; 6HR MAX TEMP:  20; 6HR PCP: TRACE;

ELY            PTCLDY    14   9  79 S5        29.99S WCI   6
HIBBING        CLOUDY    21  12  68 S7        29.99S WCI  12
EVELETH        CLOUDY    21  14  73 S7        30.00F WCI  13
DULUTH HARBOR  CLEAR     21  16  79 CALM      30.08R
TWO HARBORS    FLURRIES  21  16  79 CALM      30.03R
SILVER BAY     FLURRIES  18  14  86 CALM      30.03R
GRAND MARAIS     N/A     17  10  74 CALM      30.11R
G MARAIS ARPRT LGT SNOW   9   3  78 CALM      30.00R
$$
MNZ029>031-032-039>041-046>048-054>057-064-260100-
   West Central Minnesota

CITY           SKY/WX    TMP DP  RH WIND       PRES   REMARKS
FERGUS FALLS   CLOUDY    21  19  93 CALM      30.04R
WHEATON        MOCLDY    23  18  80 CALM      30.04R
MORRIS         CLOUDY    25  21  86 SW3       30.00S
ALEXANDRIA     CLOUDY    25  20  81 SW6       29.99S WCI  18
ELBOW LAKE     CLOUDY    23  22  93 W5        30.00S WCI  17
WADENA         CLOUDY    27  21  80 SW7       29.98R WCI  19
GLENWOOD       MOCLDY    27  23  86 S5        30.00S WCI  21
APPLETON       CLOUDY    27  25  93 CALM      30.02S
BENSON         CLOUDY    27  25  93 NW3       30.02S
ORTONVILLE     CLOUDY    25  19  80 CALM      30.01S
MADISON        CLOUDY    30  27  86 CALM      30.01F
WILLMAR        CLOUDY    28  23  80 CALM      30.02F
$$
MNZ033>034-036-042>043-049>051-058-059-260100-
   Central Minnesota

CITY           SKY/WX    TMP DP  RH WIND       PRES   REMARKS
ST CLOUD       CLEAR     24  16  71 E3        30.02F
6HR MIN TEMP:  23; 6HR MAX TEMP:  28;

SAUK CENTRE    MOCLDY    25  21  84 S3        30.01S
PAYNESVILLE    CLOUDY    24  19  83 CALM      30.02S
AITKIN         PTCLDY    23  16  74 CALM      30.00S
PINE RIVER     CLOUDY    23  16  74 SE3       30.02S
BRAINERD       PTCLDY    23  14  68 SE3       30.00S
STAPLES        MOCLDY    23  18  80 S3        29.99R
LONG PRAIRIE   MOCLDY    27  21  80 S5        30.00R WCI  21
LITTLE FALLS   CLEAR     23  16  74 CALM      30.01F
LITCHFIELD     CLOUDY    25  21  86 CALM      30.03F
BUFFALO        CLEAR     24  15  68 CALM      30.05R
MAPLE LAKE     CLEAR     25  20  82 CALM      30.04S
$$
MNZ037-044-045-052-053-260100-
   East Central Minnesota

CITY           SKY/WX    TMP DP  RH WIND       PRES   REMARKS
PRINCETON      CLEAR     21  16  79 CALM      30.04R
MORA           CLEAR     23  14  68 S3        30.05R
CAMBRIDGE      CLEAR     23  12  63 CALM      30.03R
RUSH CITY      CLEAR     22  15  76 CALM      30.05R
MOOSE LAKE     PTCLDY    21  14  73 CALM      30.01R
HINCKLEY       FAIR      25  16  68 CALM      30.04R
CLOQUET        PTCLDY    18  12  79 CALM      30.02R
MCGREGOR       CLOUDY    23  18  80 CALM      30.02R
$$
MNZ071>073-080-081-089-090-097-098-260100-
   Southwest Minnesota

CITY           SKY/WX    TMP DP  RH WIND       PRES   REMARKS
MONTEVIDEO     CLOUDY    28  28 100 W3        30.03S
GRANITE FALLS  MOCLDY    29  26  90 CALM      30.04R
CANBY          MOCLDY    27  25  92 CALM      30.01F
MARSHALL       CLOUDY    27  25  93 CALM      30.03S
REDWOOD FALLS  CLOUDY    30  23  75 CALM      30.03F
OLIVIA         CLOUDY    28  25  86 CALM      30.02F
PIPESTONE      CLOUDY    32  28  86 CALM      29.98F
WINDOM         CLOUDY    27  27 100 CALM      30.02F
WORTHINGTON    CLOUDY    28  27  93 NW3       30.02F
JACKSON        CLOUDY    28  27  93 CALM      30.03S
TRACY          CLOUDY    29  28  95 CALM      30.02S
SLAYTON        CLOUDY    28  27  97 CALM      30.01F FOG
$$
MNZ065>067-074>077-082>085-091>093-260100-
   South Central Minnesota

CITY           SKY/WX    TMP DP  RH WIND       PRES   REMARKS
MANKATO        CLOUDY    25  16  68 E3        30.04S
NEW ULM        CLOUDY    27  19  74 CALM      30.05S
FAIRMONT       CLOUDY    28  21  74 NW6       30.03S WCI  22
GLENCOE        CLEAR     24  18  77 CALM      30.05R
FARIBAULT      CLOUDY    21  18  86 CALM      30.05S
OWATONNA       CLOUDY    23  18  80 W5        30.04R WCI  17
WASECA         CLOUDY    23  19  86 NE5       30.06S WCI  17
ALBERT LEA     CLOUDY    25  21  86 W7        30.03S WCI  17
$$
MNZ078>079-086>088-094>096-260100-
   Southeast Minnesota

CITY           SKY/WX    TMP DP  RH WIND       PRES   REMARKS
ROCHESTER      CLOUDY    24  17  74 N5        30.02R WCI  18
6HR MIN TEMP:  24; 6HR MAX TEMP:  26;

RED WING       CLEAR     19  12  73 CALM      30.05S
STANTON        CLOUDY    24  18  75 CALM      30.04S
DODGE CENTER   CLOUDY    23  19  86 N3        30.02S
WINONA         CLEAR     25  18  74 CALM      30.06R
AUSTIN         CLOUDY    25  21  86 NW6       30.03R WCI  18
PRESTON        MOCLDY    23  17  77 CALM      30.02R
$$
ABBREVIATIONS USED IN REMARKS
   TC - TEMPERATURES IN CELSIUS
  WCI - WIND CHILL INDEX
   HX - HEAT INDEX
  VSB - VISIBILITY
$$


USA.gov is the U.S. government's official web portal to all federal, state and local government web resources and services.